Location: Ago
(8.4667°N, 4.4167°E)
Time: 08:55:40
(UTC+00:00)

STARLINK-1069 - Pass Details

Date: 06 June 2020
Orbit: 549 x 550 km, 53.0° (Epoch: 06 July)

Event Time Altitude Azimuth Distance (km) Brightness Sun altitude
Rises 19:37:33 0° 325° (NW) 2,713 8.2 -22.7°
Reaches altitude 10° 19:39:47 10° 325° (NW) 1,821 7.1 -23.2°
Enters shadow 19:43:39 77° 313° (NW) 568 3.6 -24.0°
